This is the latest recevied weather packets stored in our database for station/object KF0TNT. If no packets are shown the sender has not sent any weather packets the latest 10 day(s).
| Time | Temp. | Humidity | Pressure | Rain* | Wind** | Luminosity | Snow |
|---|---|---|---|---|---|---|---|
| 1778101359 | -0.56° C | 85% | 1020.4 hPa | 0 mm | - | 151 W/m² | - |
| 1778101056 | -1.11° C | 85% | 1020.1 hPa | 0 mm | - | 125 W/m² | - |
| 1778100752 | -1.11° C | 86% | 1020.2 hPa | 0 mm | - | 102 W/m² | - |
| 1778100449 | -1.11° C | 86% | 1020 hPa | 0 mm | - | 91 W/m² | - |
| 1778100146 | -1.11° C | 87% | 1020.5 hPa | 0 mm | - | 87 W/m² | - |
| 1778099845 | -1.11° C | 87% | 1020.4 hPa | 0 mm | - | 83 W/m² | - |
| 1778099541 | -1.11° C | 86% | 1019.9 hPa | 0 mm | - | 76 W/m² | - |
| 1778099239 | -0.56° C | 87% | 1020.1 hPa | 0 mm | - | 77 W/m² | - |
| 1778098935 | -0.56° C | 86% | 1020.1 hPa | 0 mm | - | 63 W/m² | - |
| 1778098632 | 0° C | 84% | 1020.4 hPa | 0 mm | - | 65 W/m² | - |
| 1778098329 | 0° C | 82% | 1020 hPa | 0 mm | - | 125 W/m² | - |
| 1778098025 | 0° C | 83% | 1020.1 hPa | 0 mm | - | 465 W/m² | - |
| 1778097722 | 0° C | 84% | 1019.9 hPa | 0 mm | - | 219 W/m² | - |
| 1778097419 | 0° C | 84% | 1019.9 hPa | 0 mm | - | 441 W/m² | - |
| 1778097115 | 0° C | 85% | 1019.7 hPa | 0 mm | - | 203 W/m² | - |
| 1778096813 | 0° C | 83% | 1020 hPa | 0 mm | - | 292 W/m² | - |
| 1778096509 | 0° C | 84% | 1019.7 hPa | 0 mm | - | 219 W/m² | - |
| 1778096207 | -0.56° C | 87% | 1019.6 hPa | 0 mm | - | 264 W/m² | - |
| 1778095903 | -1.11° C | 87% | 1020.1 hPa | 0 mm | - | 136 W/m² | - |
| 1778095600 | -1.11° C | 87% | 1020 hPa | 0 mm | - | 124 W/m² | - |
| 1778095296 | -1.11° C | 87% | 1020 hPa | 0 mm | - | 90 W/m² | - |
| 1778094993 | -1.11° C | 87% | 1020 hPa | 0 mm | - | 81 W/m² | - |
| 1778094689 | -1.11° C | 87% | 1020 hPa | 0 mm | - | 83 W/m² | - |
| 1778094387 | -0.56° C | 87% | 1019.9 hPa | 0 mm | - | 96 W/m² | - |
| 1778094083 | -1.11° C | 88% | 1019.6 hPa | 0 mm | - | 107 W/m² | - |
* Rain latest hour (hover to see other rain measurements)
** Current wind speed in m/s (hover to see current wind gust speed)